User: anonymous   Login
Location: Plymouth
(43.7570°N, 71.6890°W)
Time: 23:40:47
(UTC-04:00)
Language:

COSMOS 2406 - Orbit

View from above orbital plane
View from above orbital plane
View from above satellite
View from above satellite

Ground track
Ground track

The orbit data is extracted from the following two-line orbital elements,

1 28352U 04021A   17175.26519817 -.00000038 +00000-0 +47826-5 0  9991
2 28352 071.0012 109.9216 0013076 092.3043 267.9575 14.11611991671840
Epoch (UTC): 24 June 2017 06:21:53
Eccentricity: 0.0013076
inclination: 71.0012°
perigee height: 844 km
apogee height: 863 km
right ascension of ascending node: 109.9216°
argument of perigee: 92.3043°
revolutions per day: 14.11611991
mean anomaly at epoch: 267.9575°
orbit number at epoch: 67184

The dashed part of the orbit path shows where the satellite is in the earth's shadow,  

DLR